Theta_e
344 348 350 352 352 352 352 352 352 352 352 353 353 352 352 352 353 353 353 353 354 354 351 351 351 352 352 350 349 349 349 349 349 350 349 352 352 352 352 352 351 348 352
346 348 347 350 351 352 352 351 352 354 354 354 352 352 351 351 351 352 352 353 353 353 350 350 350 351 351 348 348 348 349 348 348 348 350 349 351 351 351 351 349 349 351
343 344 345 347 349 349 350 350 351 351 351 353 354 352 352 351 351 351 351 351 353 352 352 351 350 348 349 348 347 347 348 348 347 348 348 342 343 350 351 351 350 351 350
339 341 343 345 346 346 347 346 346 348 349 350 351 352 353 353 352 351 351 350 351 352 352 353 351 349 349 347 346 346 346 346 346 347 343 343 344 351 347 349 350 350 350
332 333 336 342 344 344 345 343 344 345 345 346 347 349 350 350 351 352 350 349 351 351 352 351 351 352 349 346 343 343 344 345 344 344 340 339 339 347 349 348 348 350 349
327 324 328 335 337 342 343 342 341 340 340 342 343 346 347 347 347 347 347 349 351 351 351 352 351 350 348 345 344 342 342 343 343 340 338 336 338 346 349 349 348 348 348
318 317 321 329 332 337 338 338 336 336 337 336 336 338 341 341 342 344 345 346 347 348 349 350 348 347 346 345 345 342 341 341 340 339 338 334 331 341 347 348 346 348 347
313 312 313 322 325 328 329 331 332 329 330 329 329 331 332 331 333 332 334 335 335 339 344 346 346 345 343 344 344 341 339 339 340 338 338 336 334 336 343 349 346 345 346
310 309 309 310 315 319 324 326 326 325 326 324 324 324 323 323 324 325 326 328 330 331 334 339 343 343 344 342 342 340 337 338 337 336 339 337 341 342 343 347 346 345 345
307 307 307 307 309 308 310 320 321 321 322 319 320 321 319 318 319 319 321 323 325 325 327 329 331 339 341 341 340 337 337 337 336 335 336 337 342 344 346 347 347 345 345
305 304 304 305 306 306 308 312 313 316 317 316 313 317 313 310 311 312 316 317 318 319 320 321 323 328 336 338 338 338 337 336 335 335 336 338 341 345 345 345 346 344 344
302 302 302 302 303 304 308 305 305 307 307 308 307 307 309 307 309 310 311 313 313 315 315 316 317 320 321 326 334 337 337 337 336 337 336 337 340 344 346 345 345 344 343
300 301 301 301 301 301 303 303 303 303 304 305 305 305 306 305 304 305 305 305 305 309 307 308 309 311 314 315 319 327 333 337 338 337 337 336 339 343 345 346 344 343 342
299 300 300 299 300 300 301 301 301 302 302 302 303 304 303 302 302 303 303 303 303 304 304 304 305 307 309 311 314 318 327 332 336 338 336 334 336 341 344 348 346 345 343
298 298 298 298 298 299 299 298 299 299 299 300 300 301 301 299 298 300 300 301 301 301 302 302 303 304 306 309 311 314 317 322 330 335 337 332 332 337 342 345 346 343 341
298 298 297 297 297 297 296 296 296 297 297 298 298 298 297 295 294 295 296 297 296 297 299 300 300 302 303 306 306 309 312 317 323 329 334 333 329 332 337 343 341 339 337
297 298 297 297 296 295 294 295 295 296 297 295 296 294 294 294 292 292 293 294 294 294 295 297 297 297 297 299 301 304 307 310 314 322 328 331 331 328 331 336 336 336 334
296 295 296 297 294 293 293 293 294 294 294 293 293 292 292 292 292 291 291 291 292 293 293 293 294 293 294 294 295 298 303 307 310 315 324 329 329 330 328 328 332 335 337
295 294 293 293 293 293 293 293 292 292 292 291 291 290 290 291 291 289 290 290 291 292 292 292 292 292 291 292 294 296 298 300 304 308 311 322 327 329 330 328 326 329 333
294 294 293 293 292 292 291 291 291 290 290 290 289 289 289 289 290 289 289 289 290 290 290 290 290 291 291 291 294 294 295 297 302 305 308 313 323 326 329 329 327 326 326
292 292 292 291 291 290 289 288 288 287 287 287 288 288 288 288 289 288 288 288 288 287 287 289 289 288 288 290 290 292 295 299 301 303 307 311 317 324 325 327 328 328 327
291 291 291 291 290 289 288 287 287 286 286 286 287 286 287 287 287 288 287 286 286 286 287 287 288 287 289 291 289 289 289 297 300 303 305 309 315 321 323 324 325 327 328
290 290 290 290 289 289 288 286 286 285 285 284 284 285 286 287 287 286 286 286 284 285 287 287 288 288 286 289 290 289 290 293 294 303 306 308 312 314 317 319 320 322 324
290 291 290 290 288 288 287 284 283 281 280 282 282 283 284 285 285 286 285 286 284 285 286 286 288 288 287 286 289 291 292 292 291 292 302 307 312 316 316 318 321 321 323
290 288 287 288 288 286 285 284 282 281 281 282 282 282 282 284 285 286 285 284 284 285 286 287 287 286 288 288 288 289 290 292 293 292 292 297 304 309 311 315 315 314 319
287 286 286 287 286 285 284 283 282 280 281 280 280 280 281 283 285 285 285 284 284 285 285 286 287 287 288 288 288 290 289 289 291 293 293 295 297 304 305 309 310 309 318
Wind_Speed
6 4 14 10 11 11 13 12 11 11 10 9 9 9 9 9 8 8 8 7 7 8 8 7 6 5 6 6 5 4 3 4 4 4 5 11 12 13 13 11 10 7 9
5 9 15 14 11 14 14 13 12 12 10 9 8 7 7 7 6 6 6 6 5 6 7 6 6 5 6 5 4 3 3 2 2 5 6 7 10 12 13 10 9 7 9
9 10 13 11 15 14 14 15 14 13 12 11 8 7 6 5 4 3 3 4 4 3 3 3 3 3 4 4 2 3 1 1 1 1 5 4 5 12 14 11 9 10 9
10 11 11 12 13 15 15 16 14 13 13 13 12 11 9 6 4 3 2 2 3 3 3 3 3 2 1 1 2 1 3 1 2 2 1 3 5 9 9 12 13 12 12
12 12 10 11 14 15 14 14 15 15 14 14 13 12 12 11 11 8 5 5 5 5 4 4 4 4 3 3 4 4 4 2 3 3 3 3 4 6 8 9 12 12 11
8 8 11 16 16 14 16 17 16 16 16 15 16 16 16 15 13 11 10 9 7 8 8 7 6 5 4 5 5 6 7 3 4 3 4 4 4 8 10 12 13 13 13
9 8 9 17 18 17 17 16 16 16 16 18 19 19 19 19 19 18 15 14 13 10 9 10 9 7 6 6 6 6 7 7 3 4 5 4 5 9 11 12 14 14 15
7 7 9 15 17 19 18 18 17 19 19 21 21 21 20 21 21 21 21 21 21 20 15 10 9 9 9 8 8 8 7 8 3 5 5 5 8 11 12 12 14 14 15
7 9 8 8 11 15 18 17 17 19 19 20 21 21 21 21 21 21 21 22 21 23 22 20 13 10 9 9 10 9 8 9 5 4 5 4 11 14 14 14 15 16 16
7 8 8 7 7 7 6 16 17 18 18 19 20 19 19 18 20 20 20 21 21 22 21 22 22 17 12 10 10 10 10 10 7 4 5 5 12 15 17 18 16 16 17
8 7 7 7 6 5 7 10 13 17 18 17 16 19 12 8 9 12 17 21 22 22 21 23 23 21 18 12 10 10 10 4 6 5 5 11 16 19 19 18 18 15 19
6 6 5 6 6 5 6 6 6 8 6 7 9 9 7 8 9 11 14 20 20 21 20 21 21 20 17 10 8 8 3 5 6 7 6 15 16 18 19 15 20 18 18
4 4 5 5 5 6 5 4 4 3 4 5 9 8 6 6 6 7 6 7 7 14 7 10 10 8 11 8 8 8 8 5 5 6 9 14 17 18 20 16 16 18 18
6 5 6 7 6 7 4 5 5 5 5 6 7 9 6 5 7 7 6 7 7 7 8 6 5 7 9 10 9 11 10 7 5 5 8 16 16 19 18 17 16 16 18
7 6 7 7 7 6 7 5 6 6 6 6 8 9 8 7 7 7 7 6 6 8 7 7 6 6 7 9 9 9 10 11 10 7 6 12 11 13 17 14 12 11 12
6 6 6 7 6 6 6 7 5 5 5 6 7 9 11 8 8 8 7 7 7 7 7 7 7 6 6 6 9 9 10 10 10 10 7 5 12 14 18 14 14 16 18
6 6 7 7 7 7 6 6 5 6 7 7 7 10 10 10 10 10 8 8 9 9 10 8 8 6 6 6 9 9 8 10 10 10 9 6 7 15 15 15 16 18 21
7 7 7 7 7 7 6 5 5 6 5 5 5 5 8 9 9 8 7 8 9 8 8 8 8 8 7 7 8 8 8 8 10 11 9 8 7 6 8 14 16 19 18
7 7 7 7 7 6 6 5 5 6 6 5 4 6 8 8 9 7 6 7 9 8 8 8 8 8 9 9 9 9 9 9 10 10 11 11 12 9 8 11 17 13 15
7 7 7 6 6 4 3 3 4 4 4 4 5 6 8 7 9 6 6 7 8 8 8 9 10 8 9 9 11 11 11 11 10 9 11 10 9 11 10 11 6 10 15
7 8 6 6 4 4 3 2 2 3 3 4 5 6 7 7 9 8 6 8 9 9 10 10 10 12 9 9 11 8 8 10 13 12 10 10 10 10 13 11 6 4 5
7 7 7 6 6 5 3 2 2 1 3 3 3 5 8 9 9 10 10 9 11 9 10 10 10 9 8 8 8 10 7 5 2 8 9 10 11 7 10 10 8 8 7
7 7 7 6 7 5 6 3 3 3 2 3 5 6 7 10 9 10 11 9 10 9 8 10 10 11 8 9 10 6 6 4 10 3 3 5 5 3 3 4 5 7 8
7 7 7 7 7 6 5 5 5 3 2 2 3 4 5 7 9 9 12 9 10 8 9 9 9 9 9 9 7 8 8 9 5 7 4 4 4 2 1 2 3 5 7
8 8 7 8 7 6 6 5 4 4 2 1 2 5 6 7 8 11 11 10 10 7 9 10 10 10 8 8 8 7 8 8 8 6 9 7 7 5 6 6 6 5 7
7 8 7 8 7 7 5 5 6 5 4 4 4 4 5 5 5 9 11 9 10 10 10 10 10 10 8 9 9 9 8 6 5 4 6 6 5 3 4 4 6 6 5
Wind_Direction
36 40 57 28 36 45 50 50 52 56 55 56 63 71 77 88 97 103 110 112 116 118 112 101 89 72 76 92 86 79 88 94 102 100 118 133 139 139 139 137 135 135 144
90 73 50 45 42 47 49 47 48 47 51 59 62 67 74 88 101 112 119 120 124 123 121 117 111 102 84 48 41 59 63 51 89 122 143 143 149 148 150 140 135 145 142
60 49 56 46 46 46 48 47 44 44 43 44 46 51 52 53 75 112 139 147 147 144 145 144 124 103 103 102 35 345 5 116 265 226 160 150 162 166 162 148 152 151 153
60 47 50 47 58 48 47 46 45 44 40 37 33 33 35 32 17 346 294 254 210 196 212 224 198 181 144 156 178 211 300 338 270 250 183 195 198 189 176 161 162 166 163
47 45 20 40 54 54 53 57 53 49 44 40 36 30 28 26 20 7 328 299 287 270 254 257 253 212 220 218 267 261 248 194 262 287 255 235 213 196 196 194 177 171 172
42 34 26 34 39 49 55 53 51 47 42 38 36 37 35 28 17 10 8 355 320 303 292 276 265 253 238 239 258 283 287 259 212 207 253 270 248 222 208 183 184 177 173
38 23 29 41 46 49 55 55 55 48 44 42 38 35 33 27 25 22 19 13 0 344 318 298 286 261 244 226 240 245 269 279 246 229 224 229 246 245 227 199 192 185 182
61 27 33 41 46 50 51 51 48 45 44 41 38 36 32 27 26 24 22 18 16 12 356 324 302 282 255 238 230 240 234 248 229 234 243 231 225 239 238 223 195 195 189
43 45 32 28 39 41 47 47 46 47 47 42 39 36 31 27 25 22 21 18 16 14 12 5 336 306 284 260 237 224 229 250 239 198 220 241 237 232 236 234 213 195 198
45 46 34 27 24 28 22 48 51 50 48 44 38 37 34 28 24 20 19 15 16 15 13 11 4 345 308 281 254 241 225 225 246 236 213 226 247 241 228 232 220 207 200
53 39 34 28 22 20 44 39 39 44 42 37 31 30 30 21 15 17 15 15 14 14 9 5 0 358 351 320 284 259 240 226 236 242 229 214 233 249 249 235 215 213 209
60 43 36 39 31 29 48 28 32 36 33 30 26 24 26 20 18 17 13 14 12 11 9 4 359 358 358 348 334 319 257 231 226 239 240 239 228 244 255 247 213 208 215
110 72 38 41 38 43 36 30 30 30 30 25 24 24 18 18 10 13 9 6 2 7 7 3 357 354 343 340 333 326 311 260 227 236 243 243 248 243 245 249 227 220 219
92 67 43 35 39 37 39 37 33 36 30 29 21 21 16 17 12 9 8 2 5 0 355 352 345 335 334 328 326 321 315 296 277 251 251 232 234 246 246 237 215 214 212
88 66 51 46 42 37 47 33 37 33 34 29 29 25 25 21 11 4 3 3 7 355 352 344 342 334 329 327 324 316 315 311 299 274 247 238 233 257 254 220 207 210 220
117 98 77 66 59 53 50 47 36 31 28 42 36 29 25 20 9 3 354 355 356 348 340 334 333 342 330 324 317 313 308 305 300 288 268 216 214 231 236 219 189 197 219
119 106 87 76 54 57 52 49 44 40 45 41 41 27 22 17 9 358 348 351 346 339 332 330 328 325 321 317 307 305 297 295 294 290 272 247 218 223 221 213 202 207 214
113 93 72 70 62 60 59 50 50 46 47 41 47 30 21 14 8 355 350 346 336 331 328 327 323 322 315 311 306 298 291 286 286 288 283 257 237 232 216 232 218 211 217
120 112 95 75 66 63 64 62 59 63 53 36 35 23 13 11 9 358 351 335 330 327 328 323 321 315 317 313 301 294 284 281 276 275 271 268 253 239 242 222 227 215 222
102 94 87 70 61 58 71 83 69 57 52 38 30 24 12 5 359 348 349 341 337 330 325 320 313 317 310 306 303 298 275 262 255 249 255 254 245 245 239 245 219 216 207
109 107 100 89 48 52 49 37 26 59 35 34 25 13 9 3 359 357 353 347 339 330 320 315 316 317 318 312 311 296 298 265 251 244 240 248 238 232 239 240 235 206 226
139 129 122 103 75 50 50 45 61 66 77 65 7 10 10 6 2 1 352 346 336 326 321 319 315 311 310 319 312 300 292 319 288 241 227 235 236 219 230 234 239 240 230
146 143 128 114 90 73 62 46 28 25 24 357 10 8 2 7 360 356 351 342 335 327 320 321 316 317 319 310 299 296 314 313 340 318 283 229 244 213 213 216 224 236 240
159 134 122 110 105 85 76 73 77 84 57 348 342 344 356 356 355 352 347 343 330 322 323 317 320 312 309 304 300 280 282 288 309 324 333 343 30 15 255 243 252 239 239
148 140 128 111 100 90 73 82 88 83 70 354 351 5 358 344 353 6 345 335 331 323 316 322 321 313 300 290 285 287 278 284 262 268 302 314 338 19 20 24 30 19 9
141 133 130 119 106 90 88 81 87 88 75 40 6 12 2 338 349 0 350 342 340 334 341 330 328 337 319 315 300 278 268 270 291 258 251 295 330 338 360 24 26 8 29